Home > Weather > Tórshavn > Past weeks

Flag for Faroe Islands Past Weather in Tórshavn, Faroe Islands — Yesterday and Last 2 Weeks

Now
52 °F

Drizzle. Partly sunny.


Feels Like: 47 °F
Forecast: 50 / 56 °F
Wind: 13 mph from Northwest

Location: Soervaag / Vagar

Current Time: Jul 31, 2016 at 10:55:23 AM

Latest Report: Jul 31, 2016 at 10:20 AM


Visibility: 4 mi

Pressure: 29.83 "Hg

Humidity: 94%

Dew Point: 50 °F

Location of TórshavnLocation

Past Weather in Tórshavn — Graph

°F

Tórshavn Temperature Yesterday

Maximum temperature yesterday: 54 °F (at 10:50 AM)
Minimum temperature yesterday: 50 °F (at 12:20 AM)
Average temperature yesterday: 52 °F

High & Low Weather Summary for the Past Weeks

 TemperatureHumidityPressure
High63 °F (Jul 20, 10:20 AM)100% (Jul 16, 12:50 PM)29.98 "Hg (Jul 16, 12:50 PM)
Low46 °F (Jul 18, 4:50 AM)72% (Jul 17, 1:50 PM)29.53 "Hg (Jul 16, 9:20 AM)
Average52 °F95%29.79 "Hg
* Reported Jul 16 9:20 AM — Jul 31 9:20 AM, Tórshavn, Weather by CustomWeather, © 2016

Note: Actual official high and low records may vary slightly from our data, if they occured in-between our weather recording intervals... More about our weather records

Advertising

Tórshavn Weather History for the Previous 24 Hours

Scroll right to see more
 ConditionsComfort  
Time TempWeatherWind HumidityBarometerVisibility
9:20 AM
Sun, Jul 31
52 °FPartly sunny.17 mph94%29.83 "HgN/A
8:50 AM52 °FPartly sunny.15 mph94%29.83 "HgN/A
8:20 AM54 °FSprinkles. Partly sunny.16 mph94%29.83 "HgN/A
7:50 AM54 °FDrizzle. Partly sunny.15 mph88%29.83 "HgN/A
7:20 AM52 °FPartly sunny.13 mph94%29.83 "HgN/A
6:50 AM52 °FBroken clouds.18 mph94%29.80 "HgN/A
6:20 AM52 °FBroken clouds.16 mph94%29.80 "Hg5 mi
5:50 AM52 °FSprinkles. Passing clouds.16 mph94%29.80 "HgN/A
5:20 AM52 °FLight rain. Passing clouds.13 mph94%29.80 "HgN/A
4:50 AM52 °FPartly cloudy.15 mph94%29.80 "HgN/A
4:20 AM52 °FLight rain. Passing clouds.16 mph94%29.80 "HgN/A
3:50 AM52 °FLight rain. Passing clouds.16 mph94%29.80 "HgN/A
3:20 AM52 °FPartly cloudy.16 mph94%29.80 "HgN/A
2:50 AM52 °FPassing clouds.16 mph94%29.80 "HgN/A
2:20 AM52 °FPassing clouds.14 mph94%29.80 "HgN/A
1:50 AM52 °FPassing clouds.14 mph94%29.80 "HgN/A
1:20 AM52 °FPassing clouds.17 mph94%29.77 "HgN/A
12:50 AM52 °FPartly cloudy.17 mph94%29.77 "HgN/A
12:20 AM54 °FPassing clouds.14 mph88%29.77 "HgN/A
11:50 PM
Sat, Jul 30
52 °FSprinkles. Passing clouds.15 mph94%29.77 "HgN/A
11:20 PM54 °FPassing clouds.16 mph88%29.74 "HgN/A
10:50 PM52 °FLight rain. Partly sunny.18 mph94%29.74 "HgN/A
10:20 PM52 °FDrizzle. Partly sunny.17 mph94%29.71 "Hg4 mi
9:50 PM52 °FSprinkles. Partly sunny.17 mph94%29.71 "Hg4 mi
9:20 PM54 °FSprinkles. Broken clouds.18 mph88%29.71 "HgN/A
8:50 PM52 °FSprinkles. Partly sunny.22 mph94%29.71 "Hg4 mi
8:20 PM52 °FSprinkles. Partly sunny.23 mph94%29.71 "Hg2 mi
7:50 PM52 °FPartly sunny.21 mph94%29.71 "HgN/A
7:20 PM52 °FPartly sunny.20 mph94%29.71 "HgN/A
6:50 PM52 °FSprinkles. Fog.18 mph94%29.74 "Hg2 mi
6:20 PM52 °FSprinkles. Low clouds.17 mph94%29.71 "Hg4 mi
5:50 PM52 °FPartly sunny.18 mph94%29.74 "Hg4 mi
5:20 PM52 °FDrizzle. Partly sunny.18 mph94%29.74 "Hg6 mi
4:50 PM52 °FPartly sunny.20 mph94%29.74 "HgN/A
4:20 PM54 °FPartly sunny.22 mph88%29.74 "HgN/A
3:50 PM54 °FPartly sunny.18 mph88%29.74 "HgN/A
3:20 PM52 °FPartly sunny.15 mph94%29.74 "HgN/A
2:50 PM54 °FPartly sunny.14 mph88%29.74 "HgN/A
2:20 PM54 °FPartly sunny.13 mph94%29.74 "HgN/A
1:50 PM54 °FSprinkles. Partly sunny.13 mph94%29.74 "HgN/A
1:20 PM54 °FSprinkles. Partly sunny.13 mph100%29.74 "Hg4 mi
12:50 PM54 °FSprinkles. Fog.16 mph94%29.71 "Hg2 mi
12:20 PM54 °FDrizzle. Fog.15 mph94%29.71 "Hg2 mi
11:50 AM54 °FDrizzle. Fog.17 mph94%29.71 "Hg3 mi
11:20 AM54 °FSprinkles. Partly sunny.20 mph94%29.71 "Hg3 mi
10:50 AM54 °FPartly sunny.23 mph94%29.71 "Hg4 mi
10:20 AM52 °FSprinkles. Fog.21 mph100%29.71 "Hg2 mi
Weather by CustomWeather, © 2016

See weather overviewHow to use our weather pages